Lid_Strength_Index
-1 -1 -1 2 8 8 11 10 7 8 8 5 4 6 7 6 8 11 1 0 -0 -0 -1 -1 -1 -1 -1 -1 -1 -1 -2 -2 -2 -1 -2 -2 -2 -2 -2 -2 -2 -2 -2 -2 -2 -2 -2 -2 -2
-1 0 1 4 9 11 11 8 9 7 5 4 4 5 6 7 3 3 2 -0 -1 -1 -1 -1 -2 -2 -1 -1 -1 -2 -2 -1 -1 -1 -2 -2 -2 -2 -2 -2 -2 -2 -2 -2 -2 -2 -2 -2 -2
-0 0 5 7 8 11 11 8 7 6 5 5 6 4 5 6 3 2 0 -1 -1 -1 -1 -1 -1 -2 -1 -2 -1 -2 -2 -2 -1 -2 -2 -2 -2 -2 -2 -2 -2 -2 -2 -2 -2 -2 -2 -2 -2
1 3 4 8 10 9 8 7 6 6 5 5 5 7 4 2 2 1 -0 -1 -1 -1 -1 -1 -1 -1 -1 -2 -1 -1 -1 -1 -2 -2 -2 -2 -1 -2 -2 -2 -2 -2 -2 -2 -2 -2 -2 -2 -2
1 4 8 10 10 8 6 6 5 6 6 6 5 6 6 2 0 -0 -0 -1 -0 -1 -1 -1 -1 -1 -1 -2 -1 -2 -1 -2 -1 -2 -2 -2 -2 -2 -2 -2 -2 -2 -2 -2 -2 -2 -2 -2 -2
5 5 10 11 10 8 6 5 6 6 6 6 6 6 5 1 1 0 -0 -0 -1 -1 -1 -1 -1 -1 -1 -1 -1 -1 -1 -1 -1 -2 -1 -2 -2 -2 -2 -2 -2 -2 -2 -2 -2 -2 -2 -2 -2
6 7 10 10 10 9 8 5 6 6 6 6 4 6 4 2 1 -0 -0 -1 -1 -1 -1 -1 -1 -2 -1 -1 -1 -1 -1 -2 -2 -1 -2 -2 -2 -2 -2 -2 -2 -2 -2 -2 -2 -2 -2 -1 -1
4 6 9 9 10 10 6 6 5 5 6 3 3 7 6 3 0 -0 -0 -0 -1 -1 -1 -1 -1 -1 -2 -2 -1 -1 -1 -2 -2 -1 -2 -2 -2 -2 -2 -2 -2 -2 -2 -2 -1 -1 -1 -1 -1
3 9 10 9 9 9 5 7 5 4 5 4 4 4 2 1 1 1 1 1 0 -0 -1 -1 -1 -1 -1 -2 -1 -1 -2 -2 -2 -2 -1 -1 -2 -2 -2 -2 -2 -1 -2 -2 -2 -1 -1 -1 -1
6 8 10 8 7 7 6 6 6 6 5 6 5 3 2 1 1 2 2 2 1 1 -0 -1 -1 -1 -1 -1 -2 -2 -2 -2 -2 -2 -2 -2 -2 -2 -2 -2 -1 -1 -1 -1 -1 -1 -1 -2 -2
6 9 8 8 6 5 6 6 5 6 7 5 6 4 3 2 2 2 2 1 1 0 -0 -1 -1 -1 -1 -1 -1 -1 -1 -2 -2 -2 -2 -2 -2 -2 -2 -2 -2 -2 -2 -2 -2 -2 -2 -1 -2
8 7 7 7 6 6 6 5 7 6 5 3 3 3 3 3 3 2 2 1 1 1 0 -0 -1 -1 -1 -1 -1 -1 -1 -1 -1 -2 -2 -2 -1 -2 -2 -2 -2 -2 -2 -2 -2 -2 -2 -2 -2
8 7 6 6 6 6 5 6 6 6 4 3 3 3 3 3 2 2 1 1 1 1 0 -0 -1 -1 -1 -1 -1 -1 -1 -1 -1 -2 -2 -2 -2 -2 -2 -2 -2 -2 -2 -1 -2 -2 -1 -1 -1
6 7 7 7 7 6 7 6 6 5 3 4 3 3 3 3 2 2 1 1 1 0 0 -0 -1 -1 -1 -1 -2 -1 -1 -1 -2 -2 -2 -2 -2 -2 -2 -2 -2 -2 -2 -2 -2 -2 -2 -1 -1
6 9 8 8 8 8 6 8 7 5 4 4 4 3 3 3 2 2 1 1 1 0 -0 -0 -1 -1 -1 -1 -1 -1 -1 -1 -1 -1 -2 -2 -2 -2 -2 -2 -2 -2 -2 -2 -2 -1 -2 -1 -1
8 8 12 9 8 7 7 10 7 4 5 5 4 4 3 3 2 1 1 1 0 0 0 -0 -1 -1 -1 -1 -1 -1 -1 -1 -2 -2 -2 -2 -2 -2 -2 -2 -2 -1 -2 -2 -1 -1 -1 -1 -1
9 11 12 11 8 9 8 10 7 4 5 5 5 4 4 3 2 2 1 1 0 0 0 -0 -1 -1 -1 -1 -1 -1 -1 -1 -1 -2 -2 -2 -2 -2 -2 -2 -2 -2 -2 -1 -1 -1 -1 -0 -1
11 11 11 12 9 9 10 10 7 5 5 5 5 4 4 4 3 2 1 1 0 -0 -0 -0 -0 -1 -1 -1 -1 -1 -1 -1 -2 -2 -2 -2 -2 -2 -2 -2 -2 -1 -2 -1 -1 -1 -1 -1 -1
8 10 12 10 9 11 11 10 8 6 6 7 5 4 4 4 2 2 1 1 0 0 0 -0 -0 -1 -1 -0 0 0 0 -0 -1 -1 -2 -2 -2 -2 -2 -2 -2 -2 -1 -1 -1 -1 -0 -0 -1
8 10 11 10 9 11 11 11 9 7 7 7 5 5 4 3 3 2 2 1 1 1 0 0 -0 -0 -1 -0 -0 -1 -1 -0 -1 -1 -2 -2 -2 -2 -2 -2 -2 -1 -1 -1 -1 -1 -0 -1 -1
9 10 10 11 10 10 11 12 11 8 6 5 5 4 4 3 3 3 2 2 1 1 1 0 -0 -0 -1 -1 -1 -1 -1 -1 -0 -0 -1 -1 -2 -1 -2 -2 -1 -2 -1 -1 -1 -1 -0 0 -1
10 8 9 10 12 15 11 18 13 9 9 7 6 5 4 3 3 2 2 2 1 1 0 -0 -0 -0 -1 -1 -1 -1 1 1 0 0 -1 -1 -1 -1 -2 -2 -2 -2 -1 -1 -1 -1 -0 0 0
9 7 8 10 11 12 13 15 13 10 11 9 7 5 4 3 3 3 2 2 1 1 1 0 -0 -0 -1 -1 -1 0 0 0 -0 -0 -1 -1 -1 -2 -1 -1 -1 -1 -1 -1 -1 -1 -1 -1 0
7 8 9 10 11 15 12 13 14 12 11 9 6 5 4 3 3 2 2 1 1 1 1 0 0 -0 -0 -1 -1 -0 -0 -0 1 0 0 0 -0 -1 -2 -1 -2 -2 -1 -1 -1 -1 -1 -1 -0
8 10 13 16 15 14 10 12 11 9 7 8 7 5 4 3 3 3 2 2 2 1 1 1 0 1 -0 -0 -0 -0 -0 -0 -0 0 0 -0 0 -0 -1 -1 -1 -1 -2 -1 -1 -1 -1 -1 -0
8 8 11 18 17 14 11 14 12 8 7 5 5 5 4 4 3 3 2 2 2 1 1 1 1 1 0 -0 -0 -1 -1 0 -0 -0 -0 0 -0 -0 -1 -1 -1 -1 -2 -1 -1 -1 -1 -1 -0
8 11 7 11 11 13 12 10 8 7 8 6 6 5 5 4 3 3 2 2 2 1 1 1 1 1 0 0 -0 -0 -0 -0 -0 -1 -1 -0 -1 -1 -1 -1 -1 -1 -1 -1 -1 -0 -0 -1 -1
8 6 11 10 17 17 13 12 12 10 10 8 7 6 5 4 3 3 2 2 1 1 1 1 0 1 0 -0 -0 -0 -0 -1 -1 -1 -1 -1 -1 -1 -1 -1 -1 -1 -1 -1 -1 -1 -1 -1 -0
9 10 9 10 12 17 15 12 9 9 9 9 7 6 5 5 4 3 2 2 1 1 1 1 1 1 0 0 -0 -0 -0 -0 -0 -0 -1 -1 -1 -1 -1 -1 -1 -1 -1 -1 -1 -1 -1 -0 -0
7 8 9 12 14 11 13 13 7 8 7 7 7 6 5 4 3 3 3 2 2 1 1 1 1 1 0 -0 -0 0 -0 -0 -0 -0 -0 -1 -1 -1 -1 -1 -1 -1 -1 -1 -1 -0 -0 -0 0